Location: PSU-Greenbush Astrophysical Observatory
(37.5140°N, 94.9880°W)
Time: 16:32:06
(UTC-05:00)

BEESAT - Pass Details

Date: 23 February 2020
Orbit: 700 x 708 km, 98.6° (Epoch: 09 April)

Event Time Altitude Azimuth Distance (km) Brightness Sun altitude
Rises 05:20:34 0° 168° (SSE) 3,085 ? -20.4°
Reaches altitude 10° 05:22:49 10° 170° (S) 2,169 ? -20.0°
Maximum altitude 05:27:35 79° 257° (WSW) 723 ? -19.0°
Drops below altitude 10° 05:32:21 10° 344° (NNW) 2,179 ? -18.1°
Sets 05:34:37 0° 346° (NNW) 3,100 ? -17.6°
